CW6888 Weather Reports


Display with metric or nautical units.
time (UTC)temp
F
wind
direction
speed
MPH
gust
MPH
rain 1hr
in
rain 24hr
in
rain mn
in
humidity
%
barometer
mb
20260906033816 67 9 0.0 1.0 0.00 0.00 0.00 81 1014.4
20260906032814 66 9 0.0 1.0 0.00 0.00 0.00 81 1014.6
20260906031849 67 9 0.0 1.0 0.00 0.00 0.00 81 1014.3
20260906030822 66 9 0.0 0.0 0.00 0.00 0.00 81 1014.3
20260906025814 66 9 0.0 0.0 0.00 0.00 0.00 82 1014.3
20260906024830 66 9 0.0 0.0 0.00 0.00 0.00 82 1014.2
20260906023830 66 9 0.0 1.0 0.00 0.00 0.00 82 1014.3
20260906022816 66 9 0.0 1.0 0.00 0.00 0.00 83 1014.2
20260906021813 66 9 0.0 1.0 0.00 0.00 0.00 84 1014.1
20260906020827 66 9 0.0 0.0 0.00 0.00 0.00 84 1014.0
20260906015818 66 9 0.0 0.0 0.00 0.00 0.00 84 1013.9
20260906014813 66 9 0.0 0.0 0.00 0.00 0.00 83 1013.8
20260906013832 67 9 0.0 0.0 0.00 0.00 0.00 82 1013.7
20260906012824 66 9 0.0 0.0 0.00 0.00 0.00 83 1013.7
20260906011819 66 9 0.0 0.0 0.00 0.00 0.00 84 1013.7
20260906010834 67 9 0.0 0.0 0.00 0.00 0.00 83 1013.5
20260906005818 68 9 0.0 0.0 0.00 0.00 0.00 81 1013.5
20260906004813 69 9 0.0 0.0 0.00 0.00 0.00 79 1013.3
20260906003855 69 9 0.0 0.0 0.00 0.00 0.00 79 1013.3
20260906002818 70 9 0.0 0.0 0.00 0.00 0.00 78 1013.2
20260906001813 70 9 0.0 0.0 0.00 0.00 0.00 76 1013.1
20260906000849 71 9 0.0 0.0 0.00 0.00 0.00 77 1013.0
20260905235822 71 9 0.0 0.0 0.00 0.00 0.00 77 1013.1
20260905234818 71 9 0.0 0.0 0.00 0.00 0.00 76 1012.9
20260905233817 72 9 0.0 0.0 0.00 0.00 0.00 75 1012.8
20260905232831 72 9 0.0 0.0 0.00 0.00 0.00 74 1012.9
20260905231825 73 9 0.0 0.0 0.00 0.00 0.00 74 1012.7
20260905230840 74 9 0.0 2.0 0.00 0.00 0.00 73 1012.6
20260905225829 74 9 0.0 3.0 0.00 0.00 0.00 73 1012.6
20260905224815 75 5 0.0 3.0 0.00 0.00 0.00 71 1012.7
20260905223831 75 14 0.0 5.0 0.00 0.00 0.00 71 1012.7
20260905222827 76 17 3.0 5.0 0.00 0.00 0.00 69 1012.6
20260905221820 76 5 3.0 8.0 0.00 0.00 0.00 69 1012.6
20260905220835 77 345 5.0 9.0 0.00 0.00 0.00 69 1012.5
20260905215841 77 53 5.0 10.0 0.00 0.00 0.00 68 1012.4
20260905214815 77 18 6.0 10.0 0.00 0.00 0.00 68 1012.3
20260905213845 76 5 6.0 11.0 0.00 0.00 0.00 68 1012.1
20260905212821 76 30 1.0 9.0 0.00 0.00 0.00 69 1012.1
20260905211816 77 20 2.0 12.0 0.00 0.00 0.00 67 1012.1
20260905210831 78 25 5.0 14.0 0.00 0.00 0.00 67 1011.9
20260905205820 77 59 7.0 11.0 0.00 0.00 0.00 66 1012.0
20260905204839 77 23 7.0 14.0 0.00 0.00 0.00 68 1012.1
20260905203829 78 41 6.0 10.0 0.00 0.00 0.00 66 1012.1
20260905202829 79 47 7.0 13.0 0.00 0.00 0.00 64 1012.0
20260905201825 78 38 6.0 12.0 0.00 0.00 0.00 66 1012.0
20260905200821 78 31 7.0 13.0 0.00 0.00 0.00 67 1012.1
20260905195813 77 34 5.0 11.0 0.00 0.00 0.00 68 1012.2
20260905194831 78 15 4.0 11.0 0.00 0.00 0.00 67 1012.2
20260905193819 79 28 6.0 10.0 0.00 0.00 0.00 68 1012.2
20260905192816 78 314 3.0 8.0 0.00 0.00 0.00 68 1012.3
20260905191828 79 5 3.0 10.0 0.00 0.00 0.00 68 1012.4
20260905190819 79 46 6.0 12.0 0.00 0.00 0.00 68 1012.4
20260905185845 77 32 4.0 7.0 0.00 0.00 0.00 71 1012.4
20260905184847 77 41 1.0 6.0 0.00 0.00 0.00 77 1012.6
20260905183840 77 69 2.0 4.0 0.00 0.00 0.00 74 1012.8
20260905182829 77 49 2.0 7.0 0.00 0.00 0.00 75 1012.8
20260905181826 77 44 4.0 10.0 0.00 0.00 0.00 75 1012.8
20260905180818 75 43 2.0 6.0 0.00 0.00 0.00 76 1012.8
20260905175825 76 360 3.0 6.0 0.00 0.00 0.00 76 1012.9
20260905174837 75 18 3.0 9.0 0.00 0.00 0.00 77 1013.0
20260905173831 75 16 2.0 8.0 0.00 0.00 0.00 77 1013.1
20260905172843 75 26 4.0 8.0 0.00 0.00 0.00 76 1013.2
20260905171815 75 35 5.0 7.0 0.00 0.00 0.00 77 1013.2
20260905170830 75 344 2.0 6.0 0.00 0.00 0.00 76 1013.3
20260905165817 75 38 1.0 4.0 0.00 0.00 0.00 76 1013.4
20260905164831 74 99 3.0 5.0 0.00 0.00 0.00 76 1013.5
20260905163823 74 327 2.0 10.0 0.00 0.00 0.00 78 1013.7
20260905162839 74 33 4.0 10.0 0.00 0.00 0.00 78 1013.8
20260905161826 74 30 3.0 9.0 0.00 0.00 0.00 77 1013.9
20260905160849 74 30 5.0 11.0 0.00 0.00 0.00 78 1013.9
20260905155834 74 15 5.0 10.0 0.00 0.00 0.00 77 1014.0
20260905154833 74 37 4.0 10.0 0.00 0.00 0.00 75 1014.1
20260905153822 74 19 4.0 8.0 0.00 0.00 0.00 77 1014.1
20260905152819 74 61 3.0 9.0 0.00 0.00 0.00 78 1014.0
20260905151851 73 5 5.0 11.0 0.00 0.00 0.00 77 1014.1
20260905150824 73 50 4.0 8.0 0.00 0.00 0.00 77 1014.0
20260905145831 73 69 4.0 9.0 0.00 0.00 0.00 76 1014.0
20260905144825 73 12 6.0 10.0 0.00 0.00 0.00 78 1013.9
20260905143816 73 55 5.0 11.0 0.00 0.00 0.00 79 1013.8
20260905142828 73 355 5.0 11.0 0.00 0.00 0.00 78 1013.8
20260905141823 73 49 7.0 11.0 0.00 0.00 0.00 79 1013.7
20260905140813 73 5 3.0 8.0 0.00 0.00 0.00 81 1013.5
20260905135833 72 18 2.0 9.0 0.00 0.00 0.00 82 1013.7
20260905134822 72 30 6.0 11.0 0.00 0.00 0.00 83 1013.7
20260905133818 72 26 3.0 8.0 0.00 0.00 0.00 86 1013.8
20260905132831 71 13 4.0 8.0 0.00 0.00 0.00 86 1013.8
20260905131824 71 22 2.0 9.0 0.00 0.00 0.00 86 1013.7
20260905130838 71 22 4.0 6.0 0.00 0.00 0.00 87 1013.6
20260905125822 71 19 4.0 8.0 0.00 0.00 0.00 87 1013.4
20260905124814 71 34 2.0 8.0 0.00 0.00 0.00 87 1013.2
20260905123829 71 15 5.0 9.0 0.00 0.00 0.00 87 1013.2
20260905122826 71 355 4.0 8.0 0.00 0.00 0.00 88 1013.2
20260905121840 70 26 3.0 6.0 0.00 0.00 0.00 88 1013.3
20260905120823 70 30 3.0 5.0 0.00 0.00 0.00 90 1013.4
20260905115815 70 31 0.0 4.0 0.00 0.00 0.00 91 1013.2
20260905114813 70 17 0.0 4.0 0.00 0.00 0.00 92 1013.2
20260905113826 70 26 0.0 2.0 0.00 0.00 0.00 92 1013.2
20260905112818 70 27 1.0 3.0 0.00 0.00 0.00 92 1013.2
20260905111814 70 19 1.0 3.0 0.00 0.00 0.00 92 1012.9
20260905110827 70 14 1.0 2.0 0.00 0.00 0.00 92 1012.8
20260905105815 70 22 0.0 1.0 0.00 0.00 0.00 92 1012.7
20260905104847 70 22 1.0 3.0 0.00 0.00 0.00 92 1012.6
20260905103817 70 14 0.0 2.0 0.00 0.00 0.00 92 1012.6
20260905102829 70 15 0.0 2.0 0.00 0.00 0.00 92 1012.4
20260905101842 70 15 0.0 2.0 0.00 0.00 0.00 92 1012.3
20260905100814 70 14 0.0 2.0 0.00 0.00 0.00 92 1012.3
20260905095820 70 14 0.0 3.0 0.00 0.00 0.00 92 1012.2
20260905094831 70 38 0.0 4.0 0.00 0.00 0.00 92 1012.2
20260905093824 71 21 1.0 4.0 0.00 0.00 0.00 92 1012.0
20260905092836 71 13 1.0 4.0 0.00 0.00 0.00 91 1011.9
20260905091820 71 348 3.0 5.0 0.00 0.00 0.00 91 1011.9
20260905090841 71 32 2.0 4.0 0.00 0.00 0.00 91 1011.8
20260905085842 71 355 0.0 6.0 0.00 0.00 0.00 90 1011.9
20260905084814 72 19 1.0 6.0 0.00 0.00 0.00 90 1011.8
20260905083822 72 28 0.0 0.0 0.00 0.00 0.00 90 1011.9
20260905082836 72 24 0.0 0.0 0.00 0.00 0.00 89 1011.8
20260905081819 72 10 0.0 2.0 0.00 0.00 0.00 89 1011.9
20260905080830 72 15 2.0 5.0 0.00 0.00 0.00 89 1012.0
20260905075816 72 48 1.0 5.0 0.00 0.00 0.00 89 1012.2
20260905074828 72 19 1.0 4.0 0.00 0.00 0.00 89 1012.2
20260905073822 73 22 1.0 4.0 0.00 0.00 0.00 90 1012.1
20260905072814 72 5 1.0 4.0 0.00 0.00 0.00 89 1012.2
20260905071827 72 53 3.0 5.0 0.00 0.00 0.00 90 1012.2
20260905070818 72 49 1.0 4.0 0.00 0.00 0.00 90 1012.4
20260905065824 72 78 0.0 3.0 0.00 0.00 0.00 90 1012.4
20260905064834 73 82 0.0 0.0 0.00 0.00 0.00 89 1012.4
20260905063825 73 82 0.0 0.0 0.00 0.00 0.00 89 1012.4
20260905062817 73 30 0.0 0.0 0.00 0.00 0.00 89 1012.5
20260905061830 73 30 0.0 0.0 0.00 0.00 0.00 89 1012.6
20260905060822 73 30 0.0 0.0 0.00 0.00 0.00 89 1012.5
20260905055827 73 28 0.0 0.0 0.00 0.00 0.00 89 1012.5
20260905054820 73 25 0.0 0.0 0.00 0.00 0.00 90 1012.6
20260905053831 72 22 0.0 0.0 0.00 0.00 0.00 90 1012.8
20260905052814 72 22 0.0 0.0 0.00 0.00 0.00 90 1013.0
20260905051824 72 22 0.0 0.0 0.00 0.00 0.00 91 1012.9
20260905050901 72 22 0.0 0.0 0.00 0.00 0.00 92 1012.9
20260905045827 71 22 0.0 0.0 0.00 0.00 0.00 92 1013.0
20260905044819 71 22 0.0 0.0 0.00 0.00 0.00 92 1013.1
20260905043832 71 22 0.0 0.0 0.00 0.00 0.00 92 1013.0
20260905042842 72 22 0.0 0.0 0.00 0.00 0.00 92 1013.1
20260905041825 72 22 0.0 0.0 0.00 0.00 0.00 92 1013.2
20260905040817 72 22 0.0 0.0 0.00 0.00 0.00 92 1013.3
20260905035822 72 22 0.0 0.0 0.00 0.01 0.00 92 1013.3
20260905034815 73 22 0.0 0.0 0.00 0.01 0.00 92 1013.4